CW3619 Weather Reports


time (UTC)temp
F
wind
direction
speed
knots
gust
knots
rain 1hr
in
rain 24hr
in
rain mn
in
humidity
%
barometer
mb
20260507181807 59 358 0.0 0.0 0.00 0.06 0.06 67 1014.3
20260507181305 59 358 0.0 0.0 0.00 0.06 0.06 67 1014.4
20260507180817 59 358 0.0 0.0 0.00 0.06 0.06 67 1014.3
20260507180305 59 358 0.0 0.0 0.00 0.06 0.06 67 1014.2
20260507175806 60 358 0.0 0.0 0.00 0.06 0.06 66 1014.2
20260507175259 60 358 0.0 0.0 0.00 0.06 0.06 65 1014.1
20260507174757 61 358 0.0 0.9 0.00 0.06 0.06 63 1014.1
20260507173750 61 359 0.0 0.9 0.00 0.06 0.06 62 1014.0
20260507173241 61 52 0.0 0.9 0.00 0.06 0.06 62 1013.8
20260507172738 62 244 0.0 0.0 0.00 0.06 0.06 60 1013.8
20260507172234 62 244 0.0 0.0 0.00 0.06 0.06 58 1013.7
20260507171734 63 244 0.0 0.0 0.00 0.06 0.06 56 1013.7
20260507171233 64 244 0.0 0.0 0.00 0.06 0.06 55 1013.7
20260507170734 64 244 0.0 3.5 0.00 0.06 0.06 52 1013.7
20260507170234 64 244 0.0 3.5 0.00 0.06 0.06 49 1013.6
20260507165734 64 226 0.0 6.1 0.00 0.06 0.06 50 1013.5
20260507164733 64 233 0.0 6.1 0.00 0.06 0.06 49 1013.7
20260507164230 64 251 1.7 6.1 0.00 0.06 0.06 50 1013.7
20260507163727 65 235 0.9 5.2 0.00 0.06 0.06 49 1013.7
20260507163224 64 222 0.9 4.3 0.00 0.06 0.06 50 1013.8
20260507162720 63 241 0.0 7.0 0.00 0.06 0.06 50 1013.7
20260507162218 63 255 2.6 7.0 0.00 0.06 0.06 50 1013.7
20260507161715 63 233 0.0 7.0 0.00 0.06 0.06 50 1013.7
20260507161211 64 214 0.0 7.0 0.00 0.06 0.06 49 1013.7
20260507160708 65 270 0.0 6.1 0.00 0.06 0.06 48 1013.8
20260507155705 65 281 0.0 7.8 0.00 0.06 0.06 50 1013.7
20260507155204 65 238 0.0 7.8 0.00 0.06 0.06 50 1013.6
20260507154703 65 192 3.5 7.8 0.00 0.06 0.06 50 1013.6
20260507154202 64 233 1.7 7.0 0.00 0.06 0.06 50 1013.6
20260507153702 65 254 1.7 7.0 0.00 0.06 0.06 49 1013.7
20260507153202 65 254 0.0 9.6 0.00 0.06 0.06 50 1013.7
20260507152204 65 259 0.0 7.0 0.00 0.06 0.06 52 1013.7
20260507151202 66 241 0.0 6.1 0.00 0.06 0.06 53 1013.7
20260507150702 66 305 0.0 4.3 0.00 0.06 0.06 52 1013.7
20260507150202 65 191 0.9 7.8 0.00 0.06 0.06 52 1013.8
20260507145702 65 231 1.7 7.8 0.00 0.06 0.06 50 1013.7
20260507144203 64 228 3.5 7.0 0.00 0.06 0.06 52 1013.7
20260507143200 65 256 6.1 9.6 0.00 0.06 0.06 52 1013.7
20260507142656 64 243 2.6 10.4 0.00 0.06 0.06 53 1013.8
20260507141650 64 249 1.7 7.8 0.00 0.06 0.06 55 1013.7
20260507141146 64 255 2.6 7.8 0.00 0.06 0.06 55 1014.0
20260507140143 64 266 2.6 7.8 0.00 0.06 0.06 56 1014.0
20260507134632 62 251 3.5 7.8 0.00 0.06 0.06 58 1014.0
20260507134133 62 261 1.7 7.8 0.00 0.08 0.06 56 1014.1
20260507133631 63 251 2.6 8.7 0.00 0.09 0.06 55 1014.0
20260507133132 63 263 3.5 8.7 0.00 0.09 0.06 56 1014.1
20260507132631 64 199 3.5 10.4 0.00 0.10 0.06 54 1014.1
20260507132131 63 239 2.6 10.4 0.00 0.11 0.06 55 1014.1
20260507131632 63 232 2.6 10.4 0.00 0.12 0.06 54 1014.1
20260507131129 62 245 2.6 10.4 0.00 0.13 0.06 56 1014.2
20260507130620 62 243 4.3 10.4 0.00 0.13 0.06 56 1014.2
20260507125614 62 238 2.6 9.6 0.00 0.13 0.06 58 1014.3
20260507125111 62 254 2.6 10.4 0.00 0.14 0.06 59 1014.4
20260507124105 62 41 1.7 7.8 0.00 0.17 0.06 59 1014.2
20260507123603 61 255 2.6 8.7 0.00 0.18 0.06 62 1014.3
20260507123104 61 351 5.2 8.7 0.00 0.19 0.06 62 1014.3
20260507122603 62 185 2.6 7.8 0.00 0.19 0.06 62 1014.2
20260507122101 61 227 1.7 7.8 0.00 0.20 0.06 63 1014.2
20260507121557 60 218 3.5 8.7 0.00 0.20 0.06 66 1014.2
20260507121054 60 237 2.6 8.7 0.00 0.20 0.06 65 1014.2
20260507120551 60 233 1.7 7.8 0.00 0.20 0.06 68 1014.2
20260507115541 60 202 2.6 7.0 0.00 0.20 0.06 66 1014.2
20260507115032 60 147 1.7 7.0 0.00 0.20 0.06 66 1014.2
20260507114531 60 208 1.7 7.0 0.00 0.20 0.06 68 1014.3
20260507114032 60 251 4.3 6.1 0.00 0.20 0.06 69 1014.3
20260507113033 58 206 2.6 7.8 0.00 0.20 0.06 71 1014.4
20260507112031 58 185 5.2 7.8 0.00 0.20 0.06 71 1014.4
20260507111531 58 258 3.5 7.8 0.00 0.20 0.06 73 1014.5
20260507111032 58 276 3.5 7.0 0.00 0.20 0.06 72 1014.4
20260507105531 57 246 2.6 7.0 0.00 0.20 0.06 75 1014.6
20260507105031 57 268 3.5 7.0 0.00 0.20 0.06 75 1014.6
20260507104533 56 215 1.7 5.2 0.00 0.20 0.06 76 1014.6
20260507104033 56 220 2.6 5.2 0.00 0.20 0.06 77 1014.6
20260507103531 56 339 2.6 6.1 0.00 0.20 0.06 77 1014.6
20260507103032 56 223 2.6 6.1 0.00 0.20 0.06 79 1014.7
20260507102532 55 230 2.6 4.3 0.00 0.20 0.06 80 1014.7
20260507102029 55 277 1.7 5.2 0.00 0.20 0.06 81 1014.7
20260507100518 54 253 2.6 7.8 0.00 0.20 0.06 79 1014.8
20260507100017 54 238 4.3 7.8 0.00 0.20 0.06 79 1014.7
20260507095516 55 233 3.5 5.2 0.00 0.20 0.06 79 1014.6
20260507094509 55 237 3.5 7.8 0.00 0.20 0.06 80 1014.7
20260507093504 54 147 2.6 7.8 0.00 0.20 0.06 82 1014.6
20260507093004 54 265 3.5 7.8 0.00 0.20 0.06 83 1014.7
20260507092503 54 218 2.6 7.0 0.00 0.20 0.06 84 1014.7
20260507092005 53 233 2.6 8.7 0.00 0.20 0.06 85 1014.7
20260507091459 53 203 5.2 8.7 0.00 0.20 0.06 85 1014.6
20260507085448 53 224 1.7 6.1 0.00 0.20 0.06 87 1014.6
20260507083943 52 220 1.7 5.2 0.00 0.20 0.06 88 1014.7
20260507083438 52 230 1.7 5.2 0.00 0.20 0.06 88 1014.6
20260507082935 51 209 2.6 5.2 0.00 0.20 0.06 88 1014.5
20260507082433 51 265 1.7 5.2 0.01 0.20 0.06 88 1014.5
20260507081931 51 241 1.7 4.3 0.01 0.20 0.06 88 1014.4
20260507081431 51 232 1.7 3.5 0.01 0.20 0.06 88 1014.4
20260507080932 51 218 0.9 6.1 0.01 0.20 0.06 89 1014.3
20260507080432 51 228 2.6 6.1 0.01 0.20 0.06 88 1014.4
20260507075930 51 241 2.6 5.2 0.01 0.19 0.06 88 1014.4
20260507075431 51 231 2.6 7.0 0.01 0.19 0.06 89 1014.4
20260507074432 51 206 2.6 7.0 0.01 0.19 0.06 89 1014.5
20260507073431 50 223 2.6 5.2 0.01 0.19 0.06 89 1014.3
20260507072923 50 185 1.7 4.3 0.01 0.19 0.06 89 1014.4
20260507072421 51 233 0.9 3.5 0.00 0.19 0.05 90 1014.3
20260507071918 50 237 0.9 3.5 0.00 0.19 0.05 90 1014.3
20260507071409 50 194 1.7 2.6 0.00 0.19 0.05 90 1014.3
20260507070907 50 226 0.9 3.5 0.00 0.19 0.05 90 1014.3
20260507070405 50 231 1.7 3.5 0.00 0.19 0.05 90 1014.2
20260507065906 50 241 1.7 2.6 0.00 0.19 0.05 90 1014.2
20260507065404 50 233 0.9 3.5 0.00 0.19 0.05 90 1014.1
20260507064904 50 232 1.7 3.5 0.00 0.19 0.05 90 1014.0
20260507063904 49 193 2.6 4.3 0.00 0.19 0.05 90 1014.0
20260507063403 49 235 1.7 4.3 0.00 0.19 0.05 90 1014.0
20260507062903 49 243 0.9 4.3 0.00 0.19 0.05 90 1013.8
20260507062404 49 247 2.6 4.3 0.00 0.19 0.05 90 1014.0
20260507061904 49 248 0.9 3.5 0.00 0.19 0.05 90 1014.0
20260507061359 49 199 0.9 2.6 0.00 0.19 0.05 91 1013.8
20260507060856 49 240 0.9 4.3 0.00 0.19 0.05 91 1013.8
20260507060353 49 239 1.7 4.3 0.00 0.19 0.05 90 1013.7
20260507055344 49 229 0.9 2.6 0.01 0.19 0.05 90 1013.7
20260507054339 49 233 1.7 2.6 0.01 0.19 0.05 90 1013.6
20260507053834 49 226 0.9 2.6 0.01 0.19 0.05 90 1013.7
20260507053331 49 199 0.0 2.6 0.01 0.19 0.05 90 1013.7
20260507052331 48 199 0.0 1.7 0.01 0.19 0.05 90 1013.5
20260507051833 48 197 0.0 1.7 0.02 0.19 0.05 90 1013.5
20260507051331 48 197 0.9 2.6 0.02 0.19 0.05 90 1013.4
20260507050834 48 197 0.9 2.6 0.02 0.19 0.05 90 1013.4
20260507050331 48 229 0.0 2.6 0.02 0.19 0.05 90 1013.2
20260507045833 48 229 0.9 2.6 0.02 0.17 0.05 90 1013.2
20260507045332 48 229 0.0 2.6 0.02 0.17 0.04 90 1013.1
20260507044830 48 229 0.9 2.6 0.02 0.17 0.04 90 1013.2
20260507044327 48 229 1.7 2.6 0.02 0.17 0.04 90 1013.1
20260507043824 48 224 0.9 2.6 0.02 0.17 0.04 90 1013.0
20260507043320 48 241 0.9 3.5 0.03 0.17 0.04 90 1013.1
20260507042817 48 238 1.7 3.5 0.03 0.17 0.04 90 1012.9
20260507042314 48 219 0.9 2.6 0.03 0.17 0.04 90 1012.9
20260507041811 48 221 0.0 2.6 0.02 0.17 0.03 90 1012.9
20260507041307 48 223 0.9 3.5 0.02 0.17 0.03 90 1012.9
20260507040804 48 225 0.9 3.5 0.02 0.17 0.02 90 1012.9
20260507040302 48 219 1.7 3.5 0.02 0.17 0.02 90 1012.9
20260507035803 48 212 1.7 5.2 0.02 0.15 0.02 90 1012.8
20260507035255 48 233 3.5 5.2 0.02 0.15 0.02 90 1012.7
20260507033733 48 237 1.7 6.1 0.01 0.15 0.02 90 1012.8
20260507033232 48 266 2.6 6.1 0.00 0.15 0.01 90 1012.7
20260507032733 48 222 2.6 6.1 0.00 0.15 0.01 91 1012.6
20260507032231 48 185 1.7 7.0 0.00 0.15 0.01 91 1012.7
20260507030734 48 233 3.5 10.4 0.00 0.15 0.01 91 1012.6
20260507025732 48 208 4.3 7.0 0.00 0.15 0.01 91 1012.6
20260507025232 48 238 1.7 3.5 0.00 0.15 0.01 91 1012.6
20260507024731 47 207 1.7 6.1 0.00 0.15 0.01 92 1012.5
20260507024231 47 222 2.6 6.1 0.00 0.15 0.01 92 1012.5
20260507023732 47 216 1.7 4.3 0.00 0.15 0.01 91 1012.5
20260507023230 47 215 2.6 4.3 0.00 0.15 0.01 91 1012.5
20260507022731 47 185 0.0 0.0 0.00 0.15 0.01 91 1012.4
20260507022233 47 185 0.0 0.0 0.01 0.15 0.01 92 1012.4
20260507021730 47 185 0.0 1.7 0.01 0.15 0.01 91 1012.3
20260507021221 47 185 0.0 1.7 0.01 0.15 0.01 91 1012.3
20260507020718 47 185 0.0 1.7 0.01 0.15 0.01 91 1012.4
20260507020215 47 157 0.0 1.7 0.01 0.15 0.01 91 1012.2
20260507015711 47 156 0.0 1.7 0.01 0.14 0.01 91 1012.1
20260507015208 47 156 0.0 0.0 0.01 0.14 0.01 91 1012.2
20260507013703 46 156 0.0 0.0 0.01 0.14 0.01 91 1012.1
20260507013149 46 156 0.0 0.0 0.01 0.14 0.01 91 1012.0
20260507012647 45 156 0.0 0.9 0.01 0.14 0.01 91 1012.0
20260507012144 45 156 0.0 1.7 0.00 0.14 0.00 91 1011.9
20260507011640 45 156 0.0 1.7 0.00 0.14 0.00 91 1012.0
20260507010634 45 156 0.0 1.7 0.00 0.14 0.00 91 1012.0
20260507010134 45 156 0.0 1.7 0.00 0.14 0.00 91 1012.0
20260507004631 45 156 0.0 0.0 0.00 0.14 0.00 91 1011.9
20260507004130 45 156 0.0 0.0 0.00 0.14 0.00 91 1011.8
20260507003631 45 156 0.0 0.0 0.00 0.14 0.00 91 1011.9
20260507003132 45 156 0.0 0.0 0.00 0.14 0.00 91 1011.9
20260507002630 45 156 0.0 0.0 0.00 0.14 0.00 91 1011.9
20260507002132 45 156 0.0 0.0 0.00 0.14 0.00 91 1011.8
20260507001633 45 156 0.0 0.0 0.00 0.14 0.00 91 1011.8
20260507001133 45 156 0.0 0.0 0.00 0.14 0.00 91 1011.8
20260507000623 45 156 0.0 0.0 0.00 0.14 0.00 91 1011.8
20260507000111 45 156 0.0 0.0 0.00 0.14 0.00 91 1011.8
20260506235105 46 156 0.0 0.0 0.00 0.14 0.00 91 1011.7
20260506234604 46 156 0.0 0.0 0.00 0.14 0.00 91 1011.7
20260506234103 46 156 0.0 0.0 0.00 0.14 0.00 91 1011.6
20260506233604 46 156 0.0 0.0 0.00 0.14 0.00 91 1011.7
20260506233103 46 156 0.0 0.0 0.00 0.14 0.00 91 1011.7
20260506232602 46 156 0.0 0.0 0.00 0.14 0.00 91 1011.8
20260506232101 45 156 0.0 0.9 0.00 0.14 0.00 90 1011.8
20260506231049 46 156 0.9 1.7 0.00 0.14 0.00 90 1011.6
20260506230534 46 193 0.0 1.7 0.00 0.14 0.00 90 1011.6
20260506225531 46 194 0.0 0.0 0.00 0.14 0.00 90 1011.3
20260506225031 46 194 0.0 0.0 0.00 0.14 0.00 90 1011.4
20260506224523 46 194 0.0 0.0 0.00 0.14 0.00 90 1011.6
20260506224022 46 194 0.0 1.7 0.00 0.14 0.00 90 1011.4
20260506223517 46 194 0.0 1.7 0.00 0.14 0.00 90 1011.4
20260506223014 46 194 0.9 1.7 0.00 0.14 0.00 90 1011.4
20260506222511 46 194 0.9 1.7 0.00 0.14 0.00 90 1011.6
20260506222010 46 194 0.0 0.9 0.00 0.14 0.00 90 1011.4
20260506221509 46 194 0.0 0.9 0.00 0.14 0.00 90 1011.4
20260506221008 46 194 0.0 0.9 0.00 0.14 0.00 90 1011.4
20260506220015 46 194 0.0 2.6 0.00 0.14 0.00 90 1011.4
20260506215502 46 194 0.9 2.6 0.00 0.14 0.14 90 1011.3
20260506215002 46 113 0.9 1.7 0.00 0.14 0.14 90 1011.3
20260506214458 46 112 0.0 1.7 0.00 0.14 0.14 90 1011.3
20260506213959 47 112 0.0 0.0 0.00 0.14 0.14 90 1011.2
20260506213458 47 112 0.0 0.0 0.00 0.14 0.14 90 1011.2
20260506212446 46 112 0.0 0.0 0.00 0.14 0.14 89 1011.3
20260506211938 47 112 0.0 0.0 0.00 0.14 0.14 89 1011.3
20260506211435 47 112 0.0 0.0 0.00 0.14 0.14 89 1011.4
20260506210933 47 112 0.0 2.6 0.00 0.14 0.14 89 1011.2
20260506210433 47 112 0.9 2.6 0.00 0.14 0.14 89 1011.1
20260506205932 47 110 1.7 2.6 0.00 0.14 0.14 89 1011.1
20260506205431 47 237 0.0 2.6 0.00 0.14 0.14 89 1011.0
20260506204931 47 237 0.9 2.6 0.00 0.14 0.14 89 1011.0
20260506203931 47 180 0.0 0.0 0.00 0.14 0.14 89 1011.2
20260506203430 47 180 0.0 0.9 0.00 0.14 0.14 88 1011.2
20260506202928 47 180 0.0 1.7 0.00 0.14 0.14 89 1011.2
20260506202423 47 180 0.0 1.7 0.00 0.14 0.14 88 1011.3
20260506201417 47 180 0.0 0.9 0.00 0.14 0.14 88 1011.2
20260506200915 48 180 0.0 0.0 0.00 0.14 0.14 88 1011.2
20260506200409 48 180 0.0 0.0 0.00 0.14 0.14 88 1011.2
20260506195906 48 180 0.0 0.0 0.00 0.14 0.14 88 1011.1
20260506192858 49 180 0.0 0.0 0.00 0.14 0.14 87 1010.8
20260506192354 49 180 0.0 1.7 0.00 0.14 0.14 86 1010.7
20260506191347 50 224 0.0 2.6 0.00 0.14 0.14 86 1010.4
20260506190845 50 224 0.9 6.1 0.00 0.14 0.14 86 1010.3
20260506190344 50 216 1.7 6.1 0.00 0.14 0.14 86 1010.3
20260506185333 50 223 1.7 2.6 0.00 0.14 0.14 86 1010.3
20260506184834 50 220 0.9 2.6 0.00 0.14 0.14 85 1010.2
20260506184333 50 226 0.9 2.6 0.00 0.14 0.14 85 1010.3
20260506183832 51 224 0.9 2.6 0.00 0.14 0.14 84 1010.1
20260506183331 51 141 0.0 0.0 0.00 0.14 0.14 84 1010.1
20260506182827 51 141 0.0 3.5 0.00 0.14 0.14 83 1010.1